User: anonymous   Login
Location: Cranbrook Institute of Science
(42.5830°N, 83.2450°W)
Time: 16:32:16
(UTC-04:00)
Language:

CZ-4B R/B - Orbit

View from above orbital plane
View from above orbital plane
View from above satellite
View from above satellite

Ground track
Ground track

The orbit data is extracted from the following two-line orbital elements,

1 29093U 06015B   17088.90822415 +.00006431 +00000-0 +15661-3 0  9996
2 29093 097.4881 197.9863 0063675 242.0560 117.4230 15.39181225605232
Epoch (UTC): 29 March 2017 21:47:50
Eccentricity: 0.0063675
inclination: 97.4881°
perigee height: 405 km
apogee height: 492 km
right ascension of ascending node: 197.9863°
argument of perigee: 242.0560°
revolutions per day: 15.39181225
mean anomaly at epoch: 117.4230°
orbit number at epoch: 60523

The dashed part of the orbit path shows where the satellite is in the earth's shadow,  

DLR